Burbank, CA

6:14 PM PDT on July 27, 2017 (GMT -0700)
Burbank-Glendale-Pasadena

Weather History for KBUR - May, 2013

Change the Weather History Date:

Tuesday, May 21, 2013

  Actual Average Record
Temperature  
Mean Temperature 74 °F 66 °F  
Max Temperature 84 °F 77 °F 95 °F (1988)
Min Temperature 63 °F 55 °F 39 °F (1975)
Degree Days  
Heating Degree Days 0 2  
Month to date heating degree days 4 47  
Since 1 July heating degree days 1105 1544  
Cooling Degree Days 9 2  
Month to date cooling degree days 147 42  
Year to date cooling degree days 274 93  
Growing Degree Days 22 (Base 50)    
Moisture  
Dew Point 58 °F    
Average Humidity 62    
Maximum Humidity 84    
Minimum Humidity 40    
Precipitation  
Precipitation 0.00 in 0.01 in 0.15 in (2006)
Month to date precipitation 0.70 0.28  
Year to date precipitation 2.60 12.37  
Since 1 July precipitation 5.40  
Sea Level Pressure  
Sea Level Pressure 29.86 in    
Wind  
Wind Speed 6 mph (SSE)    
Max Wind Speed 14 mph    
Max Gust Speed 17 mph    
Visibility 8 miles    
Events      
T = Trace of Precipitation, MM = Missing Value Source: NWS Daily Summary

Daily Weather History Graph

Daily Weather History Graph

Search for Another Location

Airport or City:

Trip Planner

Search our weather history database for the weather conditions in past years. The results will help you decide how hot, cold, wet, or windy it might be!

Date:

Astronomy

May. 21, 2013 Rise Set
Actual Time 5:47 AM PDT 7:53 PM PDT
Civil Twilight 5:19 AM PDT 8:21 PM PDT
Nautical Twilight 4:44 AM PDT 8:55 PM PDT
Astronomical Twilight 4:08 AM PDT 9:32 PM PDT
Moon 4:20 PM PDT (5/21) 3:08 AM PDT (5/21)
Length of Visible Light 15h 02m
Length of Day
14h 05m
Waxing Gibbous, 85% of the Moon is Illuminated
May 21
Waxing Gibbous
May 24
Full
May 31
Last Quarter
Jun 8
New
Jun 16
First Quarter

Hourly Weather History & Observations

Time (PDT) Temp. Heat Index Dew Point Humidity Pressure Visibility Wind Dir Wind Speed Gust Speed Precip Events Conditions
12:53 AM 66.9 °F - 60.1 °F 79% 29.89 in 10.0 mi ESE 8.1 mph - N/A   Partly Cloudy
1:00 AM 66.2 °F - 60.8 °F 83% 29.93 in 9.0 mi SE 8.1 mph - N/A   Scattered Clouds
1:10 AM 66.2 °F - 60.8 °F 83% 29.92 in 8.0 mi SE 10.4 mph - N/A   Overcast
1:53 AM 66.0 °F - 60.1 °F 81% 29.88 in 6.0 mi SE 6.9 mph - N/A   Haze
2:53 AM 66.0 °F - 59.0 °F 78% 29.87 in 6.0 mi SSE 4.6 mph - N/A   Haze
3:53 AM 64.9 °F - 59.0 °F 81% 29.86 in 6.0 mi SSE 4.6 mph - N/A   Haze
4:53 AM 64.9 °F - 59.0 °F 81% 29.86 in 6.0 mi SSE 3.5 mph - N/A   Haze
5:53 AM 64.9 °F - 57.9 °F 78% 29.87 in 6.0 mi NNE 3.5 mph - N/A   Haze
6:53 AM 64.9 °F - 57.9 °F 78% 29.89 in 5.0 mi South 4.6 mph - N/A   Haze
7:53 AM 64.9 °F - 57.9 °F 78% 29.90 in 4.0 mi Calm Calm - N/A   Haze
8:53 AM 66.0 °F - 57.9 °F 75% 29.91 in 6.0 mi Calm Calm - N/A   Haze
9:53 AM 70.0 °F - 57.9 °F 65% 29.91 in 7.0 mi Calm Calm - N/A   Clear
10:53 AM 73.9 °F - 57.9 °F 57% 29.89 in 9.0 mi SSE 5.8 mph - N/A   Clear
11:53 AM 78.1 °F - 57.9 °F 50% 29.88 in 10.0 mi ESE 5.8 mph - N/A   Clear
12:53 PM 82.9 °F 82.6 °F 57.9 °F 42% 29.86 in 10.0 mi South 9.2 mph - N/A   Clear
1:53 PM 82.9 °F 82.6 °F 57.9 °F 42% 29.85 in 10.0 mi SSE 9.2 mph - N/A   Clear
2:53 PM 82.9 °F 82.4 °F 57.0 °F 41% 29.83 in 10.0 mi South 10.4 mph - N/A   Clear
3:53 PM 82.9 °F 82.0 °F 55.0 °F 38% 29.81 in 10.0 mi South 11.5 mph - N/A   Clear
4:53 PM 80.1 °F 80.1 °F 55.0 °F 42% 29.80 in 10.0 mi South 12.7 mph - N/A   Clear
5:53 PM 77.0 °F - 57.0 °F 50% 29.79 in 10.0 mi South 10.4 mph - N/A   Clear
6:53 PM 72.0 °F - 57.0 °F 59% 29.79 in 10.0 mi South 10.4 mph - N/A   Clear
7:53 PM 68.0 °F - 57.9 °F 70% 29.80 in 10.0 mi South 8.1 mph - N/A   Clear
8:53 PM 64.9 °F - 57.0 °F 75% 29.82 in 10.0 mi South 6.9 mph - N/A   Clear
9:53 PM 64.0 °F - 57.0 °F 78% 29.82 in 9.0 mi SSE 6.9 mph - N/A   Clear
10:53 PM 63.0 °F - 57.0 °F 81% 29.83 in 8.0 mi South 4.6 mph - N/A   Clear
11:20 PM 62.6 °F - 57.2 °F 82% 29.86 in 7.0 mi SSE 4.6 mph - N/A   Scattered Clouds
11:47 PM 64.4 °F - 57.2 °F 77% 29.85 in 8.0 mi SSE 8.1 mph - N/A   Mostly Cloudy
11:53 PM 64.0 °F - 57.9 °F 80% 29.82 in 7.0 mi SSE 6.9 mph - N/A   Mostly Cloudy